Showing default

HULIANWANG DIGUI-12, 62972

Orbit data source: Space-Track

HULIANWANG DIGUI-12, 62972 is a payload satellite owned by Zhongguo Xingwang (CN) in LEO that was launched on Tue, 11 Feb 2025 UTC via a CHANG ZHENG 8A launch vehicle from the Wenchang Satellite Launch Center (WSC). Payload-class satellites include a variety of spacecraft equipped with specific instruments for various scientific and technological missions. These include communications satellites like Starlink; space stations such as the ISS; scientific satellites like the Hubble; Earth observation satellites from companies like Planet Labs, Umbra, and HawkEye 360; GPS; miniature CubeSats for education and research; and military/defense satellites.

Loading next visibility...
Identifier
62972, 2025-030B
Orbit
LEO
Country
Flag of CNCN / PRC
Related business
Manufacturer
CAST
Mission
Operational Civil Communications
Bus & Motor
GUOWANG C, Unknown motor
Mass
~800 kg wet, ~800 kg dry
Launch date (UTC)
2025-02-11 (7 months ago)
Launch vehicle
CHANG ZHENG 8A
Launch site
Wenchang Satellite Launch Center (WSC)
Object type
Payload
Rocket body
Debris
Shape & HBR
Box + 2 Pan, 5.0 m
Radar Cross Section
5.935 m², Large (>1 m²)

Expand to show TLE details & history
Last TLE update: 5 hours ago

TLE from 5 hours ago
0 HULIANWANG DIGUI-12
1 62972U 25030B   25243.57797582 -.00000060  00000-0  13818-3 0  9993
2 62972  50.0005 194.6891 0001167 347.9302  12.1542 13.29329613 27338
Epoch: 2025-08-31T13:52Z
TLE epoch observation values (Epoch: 2025-08-31T13:52:17.11Z)
Latitude
-0.00003°
Longitude
6.62187°
Altitude
1,148.94 km
Speed
7.28 km/s
True Right ascension
12h 58m 45s
True Declination
0° 00' 00"
Sunlit
Object was in daylight at epoch
Visualization orbit readout
Latitude
Unknown
Longitude
Unknown
Altitude
Unknown
Speed
Unknown
Apparent Right ascension
Unknown
Apparent Declination
Unknown
Sunlit
N/A
Visualization observer readout
Local Sidereal Time
10:23:07
Azimuth
Unknown
Elevation
Unknown
Doppler factor
Unknown
Orbital elements
Apogee altitude
1,150.877 km
Perigee altitude
1,149.12 km
Semi-major axis
7,528.135 km
Eccentricity
0.00012
Inclination
50.0005°
RAAN
194.6891°
Arg. of periapsis
347.9302°
True anomaly
12.15702°
Mean anomaly
12.1542°
Eccentric anomaly
12.15561°
Mean motion
3.32286 °/min
Orbital period
108.34 mins
BSTAR
0.00013818
Loading maneuver chart data...
Computing Atmospheric mass density...
Loading historical data...
Loading historical data...
Loading historical data...
Loading historical data...
Loading historical data...
Loading historical data...
Loading historical data...

Documentation

Showing up to 5 results
|